Regional Weather Roundup
Issued by NWS Newport/Morehead, NC

Current Version | Previous Version | Graphics & Text | Print | Product List | Glossary Off
Versions: 1 2 3 4 5 6 7 8 9 10 11 12 13 14 15 16 17 18 19 20 21 22 23 24 25 26 27 28 29 30 31 32 33 34 35 36 37 38 39 40 41 42 43 44 45 46 47 48 49 50

000
ASUS42 KMHX 270725
RWRMHX
WEATHER ROUNDUP FOR EASTERN NORTH CAROLINA
NATIONAL WEATHER SERVICE NEWPORT/MOREHEAD CITY NC
300 AM EDT WED MAY 27 2015

NOTE: "FAIR" INDICATES FEW OR NO CLOUDS BELOW 12,000 FEET
WITH NO SIGNIFICANT WEATHER AND/OR OBSTRUCTIONS TO VISIBILITY

NCZ015>017-031-032-045>047-102-103-270800-
NORTH COAST

CITY           SKY/WX    TMP DP  RH WIND       PRES   REMARKS
EDENTON        CLOUDY    71  66  83 S10       30.25F
ELIZABETH CITY CLOUDY    71  66  84 S6        30.25F
KITTY HAWK     MOSUNNY   71  64  78 S7        30.25F
MANTEO         PTCLDY    71  65  79 SW13      30.26F

$$

NCZ045>047-081-094-103-104-270800-
CENTRAL COAST

CITY           SKY/WX    TMP DP  RH WIND       PRES   REMARKS
FRISCO         PTCLDY    72  62  71 SW12      30.28S
SWANQUARTER      N/A     73 N/A N/A S14       30.21F

$$

NCZ095-097-098-100-101-270800-
SOUTHERN COAST

CITY           SKY/WX    TMP DP  RH WIND       PRES   REMARKS
BEAUFORT       PTCLDY    73  67  81 S8        30.26F
CEDAR ISLAND     N/A     72 N/A N/A S7        30.30S
JACKSONVILLE   CLOUDY    73  68  84 S3        30.24F
PINEY ISLAND   SUNNY    N/A N/A N/A S5        30.26F
WILMINGTON     MOCLDY    73  70  90 S5        30.23F


$$

NCZ011>013-027>030-043-044-078>080-089-090>093-098-270800-
COASTAL PLAIN

CITY           SKY/WX    TMP DP  RH WIND       PRES   REMARKS
AHOSKIE        PTCLDY    69  66  92 S6        30.22F
CLINTON        MOCLDY    72  71  97 S3        30.22F
ELIZABETHTOWN  LGT RAIN  71  71  99 CALM      30.22F
GOLDSBORO      CLOUDY    72  70  94 CALM      30.21F
GREENVILLE     MOCLDY    72  70  94 S7        30.24F
HAVELOCK       MOCLDY    70  65  84 SE3       30.27S
KENANSVILLE    CLOUDY    71  69  94 CALM      30.24F
KINSTON        MOCLDY    72  68  89 SE6       30.23F
NEW BERN       CLOUDY    68  65  90 CALM      30.26F
RICHLANDS      CLOUDY    72  64  78 S3        30.24F
ROCKY MOUNT    MOCLDY    72  69  90 S8        30.22F
WASHINGTON     CLOUDY    70  67  88 S3        30.25F
WHITEVILLE     CLOUDY    72  69  90 CALM      30.21F

$$

AMZ130-135-150-152-154-156-158-170-250-252-270-ANZ085-086-088-633-658-670-270800-
MARINE OBSERVATIONS

STATION/POSITION TIME  TEMP    WIND        PRES    WAVE   SWELL
                       AIR SEA DIR/SP/G            HT/PER HT/PER
                 (UTC) (F)     (DEG/KT/KT) (MB)    (FT/S) (FT/S)
CHESAPEAKE LIGHT 0700   67     200/ 18/ 19 1024.3
64 E VA BEACH    0650   66 62  190/ 10/ 12 1024.5    3/ 6   2/ 6
DUCK             0600   72                   N/A
2 E DUCK         0611      62                N/A     2/ 5
OREGON INLET     0600   74                   N/A
13E OREGON INLT  0700      66                N/A     3/ 5
HATTERAS CG      0600   73                   N/A
DIAMOND BUOY     0650   75 78  200/ 14/ 17 1025.2    3/ 5   2/ 8
CAPE LOOKOUT     0700   74     180/ 10/ 11 1024.2
BEAUFORT LAB     0600   75                   N/A
27 SE WRIGHTSVLE 0700   72 76  200/ 10/ 12   N/A
5 SE WRIGHTSVLE  0608   76 76  190/ 14/ 16 1024.1
225 S CAPE HAT   0650   72 74  150/  6/  8 1025.3    4/ 7   3/ 7
41 SE CHARLESTON 0650   78 76  190/  8/ 10 1023.1    3/ 7   3/ 7

$$


USA.gov is the U.S. government's official web portal to all federal, state and local government web resources and services.